Regional Weather Roundup
Issued by NWS

Home | Current Version | Previous Version | Text Only | Print | Product List | Glossary On
Versions: 1 2 3 4 5 6 7 8 9 10 11 12 13 14 15 16 17 18 19 20 21 22 23 24 25 26 27 28 29 30 31 32 33 34 35 36 37 38 39 40 41 42 43 44 45 46 47 48 49 50
000
ASUS43 KMKX 260211
RWRWI

WISCONSIN REGIONAL WEATHER ROUNDUP
NATIONAL WEATHER SERVICE MILWAUKEE/SULLIVAN WI
900 PM CDT MON MAY 25 2015

NOTE: "FAIR" INDICATES FEW OR NO CLOUDS BELOW 12,000 FEET WITH NO
SIGNIFICANT WEATHER AND/OR OBSTRUCTIONS TO VISIBILITY.

WIZ001-002-006>008-014>016-023>028-260300-
NORTHWEST WISCONSIN

CITY           SKY/WX    TMP DP  RH WIND       PRES   REMARKS
SUPERIOR ARPT  LGT RAIN  45  45 100 NE3       29.76S
ASHLAND        CLOUDY    51  51 100 NW6       29.75S
HAYWARD        MOCLDY    62  57  83 S5        29.74R
SIREN          PTCLDY    64  58  81 CALM      29.73S
CUMBERLAND     PTCLDY    61  59  94 S5        29.75R
RICE LAKE      CLOUDY    64  59  83 S5        29.77R
CHETEK         CLOUDY    63  60  90 S3        29.76R
LADYSMITH      PTCLDY    62  59  90 CALM      29.78S
EAU CLAIRE     CLEAR     65  62  90 S7        29.76R
MENOMONIE      MOCLDY    65  61  86 S5        29.77R
NEW RICHMOND   MOCLDY    66  58  73 SW6       29.76R
OSCEOLA        PTCLDY    65  58  76 S5        29.77R
$$

WIZ003>005-009-010-017-018-260300-
NORTH CENTRAL WISCONSIN

CITY           SKY/WX    TMP DP  RH WIND       PRES   REMARKS
MANITOWISH WTR MOCLDY    61  58  91 SW6       29.77R
ARBOR VITAE    MOCLDY    61  58  88 CALM      29.78R
WOODRUFF       MOCLDY    61  58  88 CALM      29.78R
RHINELANDER    CLOUDY    64  57  78 SW6       29.79R
EAGLE RIVER    MOCLDY    62  56  80 SW3       29.77S
LAND O LAKES   PTCLDY    63  56  80 SW3       29.78R
PHILLIPS       MOCLDY    61  58  90 CALM      29.77R
TOMAHAWK       CLOUDY    64  58  83 CALM      29.80R
MEDFORD        CLOUDY    62  60  95 SW5       29.80R
MERRILL        MOCLDY   N/A N/A N/A CALM      29.79S
$$

WIZ029-030-035-036-043>047-260300-
CENTRAL WISCONSIN

CITY           SKY/WX    TMP DP  RH WIND       PRES   REMARKS
WAUSAU         PTCLDY    62  56  80 N5        29.79R
MOSINEE        MOCLDY    64  61  88 SW6       29.82R
MARSHFIELD     PTCLDY    64  58  80 SW8       29.81R
STEVENS POINT  MOCLDY    61  60  95 S6        29.82R
WAUPACA        PTCLDY    63  62  96 CALM      29.82R
WAUTOMA        MOCLDY    65  64  96 CALM      29.83R
WISC RAPIDS    MOCLDY    62  60  93 S3        29.83R
CAMP DOUGLAS   CLEAR     59  59 100 E3        29.81R
$$

WIZ011>013-019>022-031-037>040-048>050-260300-
NORTHEAST WISCONSIN

CITY           SKY/WX    TMP DP  RH WIND       PRES   REMARKS
ANTIGO         CLOUDY    62  61  96 SW7       29.81R
SHAWANO        CLOUDY    65  62  88 SW3       29.80R
OCONTO         MOCLDY    67  63  87 W10G17    29.79R
STURGEON BAY   MOCLDY    68  63  83 SW8       29.81S
GREEN BAY      CLOUDY    68  61  78 SW7       29.81R
MANITOWOC      CLEAR     63  58  83 S5        29.83R
APPLETON       MOCLDY    66  57  72 W8        29.83R
CLINTONVILLE   CLOUDY    63  61  94 SW5       29.81R
OSHKOSH        PTCLDY    71  60  68 S8        29.83R
$$

WIZ032>034-041-042-053>061-260300-
SOUTHWEST WISCONSIN

CITY           SKY/WX    TMP DP  RH WIND       PRES   REMARKS
LA CROSSE      PTCLDY    66  63  90 CALM      29.78R
SPARTA         CLEAR     63  61  96 CALM      29.82R
VIROQUA        MOCLDY    70  61  72 S7        29.82S
BOSCOBEL       PTCLDY    74  61  63 S8        29.82R
PRAIRIE DU CHI PTCLDY    73  59  61 SE5       29.81S
PLATTEVILLE    PTCLDY    70  63  78 S13       29.86R
$$

WIZ056-057-062-063-064-067-068-260300-
SOUTH CENTRAL WISCONSIN

CITY           SKY/WX    TMP DP  RH WIND       PRES   REMARKS
REEDSBURG      PTCLDY    71  62  73 S10G16    29.83R
BARABOO/DELLS  PTCLDY    70  59  68 S10       29.83R
LONE ROCK      PTCLDY    72  61  68 S7        29.84R
MINERAL POINT  PTCLDY    70  61  73 S8        29.87R
MADISON        PTCLDY    74  59  59 SW8       29.85R
MIDDLETON      CLEAR     73  59  60 SW10G17   29.86R
WATERTOWN      CLEAR     71  61  70 S8        29.86R
MONROE         PTCLDY    70  59  68 S10       29.88R
JANESVILLE     CLEAR     73  61  64 S12       29.88R
$$

WIZ051-052-058>065-066-070>072-260300-
SOUTHEAST WISCONSIN

CITY           SKY/WX    TMP DP  RH WIND       PRES   REMARKS
MILWAUKEE      PTCLDY    72  60  66 SW9       29.88R
WAUKESHA       PTCLDY    72  61  68 S12       29.89R
MILWAUKEE/TIMM PTCLDY    73  57  56 S8G16     29.88R
RACINE         PTCLDY    72  60  66 SW8       29.90R
BURLINGTON     CLEAR     68  59  74 SW8       29.90R
KENOSHA        CLEAR     73  61  65 SW8       29.90R
FOND DU LAC    CLEAR     72  60  66 SW12      29.84R
SHEBOYGAN      CLEAR     71  60  68 SW13      29.84R
WEST BEND      CLEAR     70  59  68 S6        29.87R
JUNEAU         CLEAR     69  60  75 S7        29.87R
$$

LSZ147-162-260300-
LAKE SUPERIOR

STATION/POSITION TIME  TEMP    WIND        PRES    WAVE
                       AIR SEA DIR/SP/G            HT/PER
                 (UTC) (F)     (DEG/KT/KT) (MB)    (FT/S)
W MID LAKE BUOY  0150   40 36   80/  6/  6 1071.0F   2/ 5
DEVILS ISLAND    0200   42      CALM  /  1 1081.0R
PORT WING        0100   42      CALM  /  3 1078.0S
SAXON HARBOR     0100   47        CALM     1071.0S
$$

LMZ867-665-643>646-260300-
LAKE MICHIGAN

STATION/POSITION TIME  TEMP    WIND        PRES    WAVE
                       AIR SEA DIR/SP/G            HT/PER
                 (UTC) (F)     (DEG/KT/KT) (MB)    (FT/S)
CHAMBERS ISLAND  0100   68     180/  2/  7 1081.0R
N MID LAKE BUOY  0150   42 37  200/ 12/ 14   N/A     3/ 6
NORTHPORT PIER   0100   59     160/  3/  4 1081.0R
SISTER BAY       0118   71     210/ 11/ 14   N/A
KEWAUNEE LAKESHO 0100          180/ 12/ 15 1086.0R
SHEBOYGAN LAKESH 0200   70     200/ 11/ 12   N/A
PORT WASHINGTON  0140   74     200/  5/  9   N/A
ATWATER BUOY     0100   63 45  190/ 10/ 14   N/A
MILWAUKEE LAKESH 0100   75     210/ 13/ 15   N/A
S MID LAKE BUOY  0150   47 38  190/ 10/ 12   N/A     1/ 4
KENOSHA   LAKESH 0200   75     210/  6/ 10   N/A
$$

TC  - TEMPERATURE IN CELSIUS
VSB - VISIBILITY IN STATUTE MILES
WCI - WIND CHILL INDEX
HX  - HEAT INDEX




USA.gov is the U.S. government's official web portal to all federal, state and local government web resources and services.